Regional Weather Roundup
Issued by NWS

Home | Current Version | Previous Version | Graphics & Text | Print | Product List | Glossary Off
Versions: 1 2 3 4 5 6 7 8 9 10 11 12 13 14 15 16 17 18 19 20 21 22 23 24 25 26 27 28 29 30 31 32 33 34 35 36 37 38 39 40 41 42 43 44 45 46 47 48 49 50

000
ASUS43 KOAX 280010
RWRNE

WEATHER ROUNDUP FOR NEBRASKA
NATIONAL WEATHER SERVICE OMAHA NE
700 PM CDT WED MAY 27 2015

NOTES: SATELLITE DATA IS BEING USED TO AUGMENT CLOUD COVER ABOVE
       12000 FEET.
       "FAIR" INDICATES FEW OR NO CLOUDS BELOW 12,000 FEET WITH NO
       SIGNIFICANT WEATHER AND/OR OBSTRUCTIONS TO VISIBILITY.

  * THESE STATIONS DO NOT REPORT WEATHER SUCH AS RAIN...SNOW OR FOG.

NEZ001>004-019>022-054>056-280100-
NEBRASKA PANHANDLE

CITY           SKY/WX    TMP DP  RH WIND       PRES   REMARKS
SCOTTSBLUFF    MOSUNNY   69  55  60 SE18G26   29.98R
6HR MIN TEMP:  53; 6HR MAX TEMP:  71; 6HR PCP:  0.60;

ALLIANCE       PTSUNNY   63  53  70 S13       29.98S
6HR MIN TEMP:  58; 6HR MAX TEMP:  73; 6HR PCP: TRACE;

CHADRON        CLOUDY    68  57  68 S9        29.92F
6HR MIN TEMP:  59; 6HR MAX TEMP:  73; 6HR PCP:  0.67;

KIMBALL          N/A    N/A N/A N/A MISG        N/A
SIDNEY         MOSUNNY   68  56  65 SE15      30.01F
6HR MIN TEMP:  65; 6HR MAX TEMP:  73;

$$

NEZ057>060-069>072-079>082-280100-
SOUTHWEST NEBRASKA

CITY           SKY/WX    TMP DP  RH WIND       PRES   REMARKS
NORTH PLATTE   CLOUDY    70  55  59 SE14      30.00F
6HR MIN TEMP:  70; 6HR MAX TEMP:  77;

IMPERIAL       LGT RAIN  62  57  83 SE16G24   30.01F
6HR MIN TEMP:  60; 6HR MAX TEMP:  73; 6HR PCP:  0.50;

LEXINGTON      CLOUDY    73  57  57 SE13G20   30.02S
MCCOOK         CLOUDY    68  59  73 E10       30.01F
6HR MIN TEMP:  66; 6HR MAX TEMP:  76; 6HR PCP: TRACE;

OGALLALA       TSTM      64  60  88 SW9       30.04R
$$

NEZ005>010-023>029-035>040-094-280100-
NORTH CENTRAL NEBRASKA

CITY           SKY/WX    TMP DP  RH WIND       PRES   REMARKS
VALENTINE      CLOUDY    70  56  61 S17G26    29.97R
6HR MIN TEMP:  69; 6HR MAX TEMP:  79; 6HR PCP: TRACE;

AINSWORTH      PTSUNNY   73  52  48 S15       29.99S
BROKEN BOW     PTSUNNY   71  55  56 S14       30.02F
6HR MIN TEMP:  70; 6HR MAX TEMP:  79;

O`NEILL        PTSUNNY   78  46  31 S14       30.00F
ORD            CLOUDY    71  53  52 S7        30.00F
6HR MIN TEMP:  69; 6HR MAX TEMP:  80;

THEDFORD       PTSUNNY   73  55  52 S20       30.02R
$$

NEZ041-046>049-061>064-073>077-083>087-280100-
SOUTH CENTRAL NEBRASKA

CITY           SKY/WX    TMP DP  RH WIND       PRES   REMARKS
GRAND ISLAND   CLOUDY    77  51  40 CALM      30.02F
6HR MIN TEMP:  76; 6HR MAX TEMP:  83;

AURORA         PTSUNNY   78  44  29 SE13      30.01F
HASTINGS       CLOUDY    76  54  46 S12       30.02F
6HR MIN TEMP:  76; 6HR MAX TEMP:  80;

HEBRON         PTSUNNY   79  50  35 SE10      30.03S
HOLDREGE       PTSUNNY   73  55  52 SE15G21   30.02F
KEARNEY *      CLOUDY    73  57  56 SE9       30.02F
YORK           MOSUNNY   77  46  33 S7        30.03S
$$

NEZ011>018-030>034-042>045-280100-
NORTHEAST NEBRASKA

CITY           SKY/WX    TMP DP  RH WIND       PRES   REMARKS
NORFOLK        PTSUNNY   77  47  34 SE9       30.00F
6HR MIN TEMP:  77; 6HR MAX TEMP:  83;

ALBION         PTSUNNY   75  45  33 S9        30.01S
BLAIR          PTSUNNY   81  45  28 S8        30.03F
COLUMBUS *     PTSUNNY   79  43  27 SE8       30.03F
FREMONT        PTSUNNY   80  47  31 S7        30.03F
TEKAMAH        MOSUNNY   84  48  28 S13       30.01S
6HR MIN TEMP:  82; 6HR MAX TEMP:  86;

WAYNE          MOSUNNY   78  53  41 S9        30.01S
$$

NEZ050>053-065>068-078-088>093-280100-
SOUTHEAST NEBRASKA

CITY           SKY/WX    TMP DP  RH WIND       PRES   REMARKS
LINCOLN        MOSUNNY   80  48  32 S9        30.02F
6HR MIN TEMP:  80; 6HR MAX TEMP:  83;

OMAHA EPPLEY   PTSUNNY   81  50  33 S10       30.02F
6HR MIN TEMP:  80; 6HR MAX TEMP:  84;

BEATRICE       MOSUNNY   79  51  37 S10       30.03S
NEBRASKA CITY  MOSUNNY   77  43  28 S8        30.04S
PLATTSMOUTH    PTSUNNY   81  41  24 SE7       30.04S
$$

NEZ044-045-051>053-067-280100-
OMAHA AREA

CITY           SKY/WX    TMP DP  RH WIND       PRES   REMARKS
OMAHA EPPLEY   PTSUNNY   81  50  33 S10       30.02F
6HR MIN TEMP:  80; 6HR MAX TEMP:  84;

BLAIR          PTSUNNY   81  45  28 S8        30.03F
FREMONT        PTSUNNY   80  47  31 S7        30.03F
MILLARD        PTSUNNY   80  49  33 S6        30.03S
OFFUTT AFB     PTSUNNY   78  50  37 CALM      30.02F
PLATTSMOUTH    PTSUNNY   81  41  24 SE7       30.04S
WAHOO          FAIR      81  47  30 S12       30.02F
$$


USA.gov is the U.S. government's official web portal to all federal, state and local government web resources and services.